Temperature
18 17 18 18 18 18 18 18 18 18 18 18 18 18 18 18 18 18 18 18 18 18 18 18 18 18 18 18 18 18 18 18 18 18 18 18 18 18 17 17 17 17 17
18 17 18 18 18 18 18 18 18 18 18 18 18 18 18 18 18 18 18 18 18 18 18 18 18 18 18 18 18 18 18 18 18 18 18 17 17 17 17 17 17 17 17
18 18 18 18 18 18 18 18 18 18 18 18 18 18 18 18 18 18 18 18 18 18 18 18 18 18 18 18 18 18 18 18 18 18 17 17 17 17 17 17 17 17 17
18 18 17 18 18 18 18 18 18 18 18 18 18 18 18 18 18 18 18 18 18 18 18 18 18 18 18 18 18 18 18 18 17 17 17 17 16 17 17 17 17 17 17
18 18 18 18 18 18 18 18 18 18 18 18 18 18 18 18 18 18 18 18 18 18 18 18 18 18 18 18 18 18 18 18 17 17 17 17 17 17 17 17 17 17 17
18 18 17 18 18 18 18 18 18 18 18 18 18 18 18 18 18 18 18 18 18 18 18 18 18 18 18 18 18 18 18 18 17 17 17 17 17 17 17 17 17 17 17
19 18 17 18 18 18 18 18 18 18 18 18 18 18 18 18 18 18 18 18 18 18 18 18 18 18 18 18 18 18 18 17 17 17 17 17 17 17 17 17 17 17 17
19 18 17 18 18 18 18 18 18 18 18 18 18 18 18 18 18 18 18 18 18 18 18 18 18 18 18 18 18 18 18 17 17 17 17 17 17 17 17 17 17 17 17
19 19 18 18 18 18 18 18 18 18 18 18 18 18 18 18 18 18 18 18 18 18 18 18 18 18 18 18 18 18 18 17 18 17 17 17 17 17 17 17 17 17 17
19 19 18 18 18 18 18 18 18 18 18 18 18 18 18 18 18 18 18 18 18 18 18 18 18 18 18 18 18 18 18 17 18 18 17 17 17 17 17 17 17 17 17
19 19 19 19 18 18 18 18 18 18 18 18 18 18 18 17 17 17 17 18 18 18 18 18 18 18 18 18 18 18 18 18 18 18 17 17 18 17 17 17 17 17 17
19 19 18 18 18 18 18 18 18 18 17 17 17 17 17 17 17 17 18 18 18 18 18 18 18 18 18 17 18 18 18 18 18 18 17 18 18 17 17 17 17 17 17
19 19 19 18 18 18 18 18 18 18 17 17 17 17 17 17 17 17 17 17 18 18 17 17 17 17 17 17 17 18 18 18 18 18 18 18 18 17 17 17 17 17 17
19 19 19 18 18 18 18 18 18 18 18 18 17 17 17 17 17 17 17 17 17 17 17 17 17 17 17 17 17 17 18 18 18 18 18 18 18 18 17 17 17 17 17
19 19 19 18 18 18 18 18 18 18 18 18 18 18 18 18 18 17 17 17 17 17 17 17 17 17 17 17 17 17 17 18 18 17 18 18 18 18 17 17 17 17 17
19 19 19 18 18 18 18 18 18 18 18 18 18 18 18 18 18 17 18 18 18 18 17 17 17 17 17 17 17 17 17 17 17 17 17 18 18 18 18 17 17 17 17
20 19 19 19 18 18 18 18 18 18 18 18 18 18 18 18 18 18 18 18 18 18 18 18 17 17 18 18 17 17 17 17 17 17 17 17 17 18 18 18 17 17 17
20 19 19 19 19 18 18 18 18 18 18 18 18 18 18 18 18 18 18 18 18 18 17 17 17 18 18 18 18 18 18 18 17 17 17 17 17 17 17 17 17 17 17
20 19 19 19 19 18 18 18 18 18 18 18 18 18 18 18 18 18 18 18 18 17 18 18 18 18 18 18 18 18 18 18 17 17 17 17 17 17 17 17 17 17 17
20 20 19 19 19 19 18 18 18 18 18 18 18 18 18 18 18 18 18 18 18 17 18 17 17 17 18 18 18 18 17 17 17 17 17 17 17 17 17 17 17 17 17
20 20 20 19 19 19 18 18 18 18 18 18 18 18 18 18 18 18 18 18 17 17 18 17 17 17 17 17 17 18 18 17 17 17 17 17 17 17 17 17 17 17 17
21 21 20 20 19 19 19 19 18 18 18 18 18 18 18 18 18 18 18 17 17 18 17 17 17 17 17 17 17 18 18 18 17 17 17 17 17 17 16 16 16 16 16
21 21 21 20 19 19 19 19 18 18 18 18 18 18 18 18 18 18 18 18 18 17 17 17 17 17 17 17 17 18 18 18 17 17 17 16 16 16 16 16 16 16 16
22 21 21 20 20 20 19 19 19 19 19 18 18 18 18 18 18 18 18 18 18 17 17 17 17 17 17 17 17 17 17 17 17 17 16 16 16 16 16 16 16 15 15
22 22 21 21 20 20 19 19 19 18 18 18 18 18 18 18 18 18 18 18 18 18 18 17 17 17 17 17 17 17 17 17 17 17 16 16 16 16 15 15 15 15 15
22 22 21 21 21 20 20 19 19 19 18 18 18 18 18 18 18 18 18 18 18 17 17 17 17 17 17 17 17 17 17 17 17 17 16 16 15 15 15 15 15 14 14
Wind_Speed
7 9 11 11 12 12 13 14 14 14 15 15 15 15 16 16 16 16 16 16 16 17 18 18 18 18 18 18 18 17 18 18 17 17 17 17 17 17 17 16 15 17 18
8 10 11 10 11 12 14 15 14 14 15 15 15 15 16 16 15 15 16 15 16 17 17 18 18 17 17 17 17 17 17 17 16 16 16 16 16 15 14 12 10 16 17
8 10 11 10 11 12 13 14 14 15 15 15 15 15 15 15 15 15 15 15 16 16 17 17 17 17 17 17 17 17 16 16 15 14 13 14 16 14 13 13 15 17 16
9 10 11 10 11 11 12 14 14 14 15 15 15 15 15 15 15 14 15 15 16 17 17 17 17 17 16 16 16 16 15 15 13 10 10 13 14 15 14 14 15 15 15
9 10 11 9 11 12 12 12 13 13 14 14 14 14 14 14 14 14 14 15 16 16 17 17 16 16 16 15 15 15 14 13 9 7 11 11 13 15 14 14 14 14 14
9 10 12 9 10 11 12 12 12 12 13 13 14 13 14 14 13 14 14 15 16 16 16 16 15 15 15 14 14 13 12 9 7 10 10 10 12 14 13 13 13 13 13
9 9 12 9 10 10 11 11 11 12 12 12 12 12 12 13 13 14 14 15 15 15 14 14 14 14 13 13 12 11 9 4 5 9 8 9 12 14 12 12 12 12 12
9 9 11 10 9 9 10 10 10 10 11 11 12 12 12 12 12 13 13 13 14 13 13 13 13 12 12 11 10 9 6 2 7 8 8 10 13 12 11 11 11 11 10
8 8 8 9 9 9 8 8 9 9 10 10 11 11 12 11 11 12 12 12 12 12 11 11 11 10 10 9 8 7 4 1 3 7 8 9 12 10 10 10 10 10 10
7 7 6 7 7 7 9 8 7 8 8 9 9 9 10 10 10 10 11 11 10 10 10 9 9 9 8 8 7 5 4 3 4 7 6 10 12 10 9 9 9 9 9
6 5 5 6 6 5 6 8 7 7 6 6 7 7 5 6 9 8 11 10 8 8 8 7 7 7 6 8 6 5 5 3 4 4 5 12 10 9 9 9 9 9 9
6 6 5 5 5 4 4 5 4 5 6 4 5 5 4 5 5 7 9 7 6 6 6 5 5 6 6 6 9 9 4 3 3 4 7 11 8 8 8 8 8 9 9
6 5 6 5 4 3 3 3 3 3 4 4 5 4 3 3 4 4 5 6 6 6 5 6 6 3 3 2 2 3 2 2 2 3 7 10 8 8 8 9 9 9 9
5 5 4 5 4 2 2 2 2 2 2 3 3 2 3 2 2 3 2 3 2 3 2 2 2 1 1 1 2 2 3 2 1 2 5 9 8 8 8 8 9 10 10
6 5 5 3 3 3 2 0 2 2 2 3 2 2 1 1 1 2 1 1 1 1 2 2 1 1 2 2 2 2 2 2 2 3 4 8 7 8 8 9 9 9 10
6 5 5 4 3 3 2 1 0 1 1 1 1 2 1 1 1 1 1 1 1 0 0 1 2 2 2 1 1 2 2 2 2 3 4 6 8 8 8 9 10 10 11
6 5 5 5 4 3 2 2 1 0 1 1 2 1 1 1 1 1 1 1 1 1 1 2 2 2 2 2 2 2 2 2 2 3 4 3 5 8 8 8 9 11 12
6 6 5 4 4 4 2 1 0 1 1 1 1 1 1 1 1 1 1 0 1 2 2 1 2 2 2 2 2 2 2 2 3 3 3 3 3 3 6 7 6 8 10
6 6 6 5 4 4 3 2 1 0 0 1 1 1 1 1 1 1 0 0 2 2 2 2 1 2 2 2 2 2 2 2 2 2 2 2 2 2 2 5 6 6 7
7 7 6 6 5 4 3 3 1 1 1 0 1 1 1 0 0 1 1 1 2 2 2 1 2 2 2 2 2 1 1 1 1 1 2 1 1 1 1 1 3 4 5
8 8 8 7 6 5 3 3 2 1 1 0 1 2 1 1 1 1 1 1 2 2 2 2 2 2 2 2 2 1 1 1 0 0 1 0 0 1 1 0 1 1 2
10 9 9 9 8 6 4 3 2 1 1 1 1 1 1 1 1 0 1 2 1 1 1 1 2 2 2 2 2 2 2 2 1 1 1 0 0 1 1 1 1 1 1
10 10 9 9 8 7 5 4 3 3 2 2 1 1 1 1 2 2 1 2 2 2 1 2 2 3 3 2 2 2 2 1 1 1 2 1 1 1 1 2 2 2 2
11 10 10 9 8 7 7 5 5 3 2 1 1 1 0 1 1 1 2 2 3 2 2 3 1 3 3 3 2 3 3 1 2 1 1 2 2 2 2 2 2 3 3
11 10 10 9 8 8 7 6 5 4 2 2 1 1 1 1 1 2 2 2 3 3 3 3 3 3 3 3 3 2 2 2 3 2 1 1 1 2 2 2 3 4 4
11 10 10 10 9 8 8 7 6 4 3 2 1 1 1 0 0 1 2 2 2 3 3 3 3 3 3 3 3 3 3 2 2 2 2 2 1 2 3 4 4 4 4
Wind_Direction
72 74 68 63 66 71 76 79 84 86 87 87 87 91 96 97 97 98 98 99 101 101 100 100 100 101 102 102 104 106 107 108 108 109 111 113 116 117 119 126 131 119 119
89 86 79 68 67 69 74 79 83 86 87 87 86 88 93 95 95 96 98 99 100 101 100 100 100 101 102 102 103 104 106 108 108 109 112 112 114 116 119 120 107 116 124
96 94 90 73 70 73 76 80 82 85 86 87 86 88 90 92 95 96 97 98 100 102 102 100 100 101 101 101 103 104 104 106 109 116 128 121 116 117 116 111 109 121 125
97 95 84 78 73 77 77 78 81 84 86 88 88 86 86 90 93 97 97 98 101 101 101 100 99 101 101 102 103 104 105 107 112 135 125 113 118 117 120 119 121 124 126
97 95 89 80 78 80 78 79 81 85 85 88 89 87 86 87 89 93 97 99 101 101 101 101 101 102 103 103 104 104 105 109 123 131 103 108 112 118 123 123 125 126 126
107 102 94 82 80 78 79 80 82 86 85 87 88 89 89 89 90 92 94 98 100 101 102 103 104 104 106 107 107 107 108 122 150 108 109 114 114 122 127 128 129 129 130
107 102 101 88 84 81 81 79 80 83 85 86 86 90 92 92 93 95 96 99 101 102 104 105 106 106 107 107 107 108 112 135 110 105 110 110 110 121 128 130 131 133 135
109 106 107 107 90 82 80 82 81 82 83 86 86 90 96 93 94 96 98 101 103 104 105 106 107 109 111 109 109 112 119 179 118 108 108 108 113 128 134 135 137 139 141
109 108 109 115 114 109 91 83 84 84 85 87 88 92 95 96 97 99 101 102 105 109 110 109 109 110 114 115 114 115 116 294 118 116 116 116 124 135 141 144 145 145 146
111 106 109 104 103 115 113 101 90 87 87 90 90 95 103 110 112 113 116 107 106 109 111 111 112 115 119 123 127 131 155 214 135 120 118 120 132 145 151 154 156 156 157
115 113 110 109 106 103 103 109 119 115 108 118 112 115 136 120 114 122 100 106 110 113 114 115 120 125 137 144 151 166 194 184 124 110 112 117 141 155 164 166 167 169 169
131 128 117 106 104 101 99 108 107 108 105 98 89 103 107 94 98 103 111 117 118 123 131 135 150 173 197 161 165 186 189 165 148 139 124 129 151 166 176 180 182 183 181
137 134 125 117 115 111 109 103 85 90 101 106 98 102 104 122 126 120 130 137 145 161 159 155 186 185 168 137 158 174 164 180 169 146 130 144 166 179 187 192 194 193 193
149 145 128 124 118 94 74 91 105 100 101 86 98 110 123 121 112 110 117 116 141 144 137 174 166 164 171 177 188 198 190 207 182 153 134 151 175 191 196 199 201 200 200
165 162 148 142 132 130 116 60 91 77 71 91 88 94 93 134 119 112 98 92 144 144 168 176 189 188 213 207 210 206 223 223 216 210 160 162 186 203 208 208 206 206 207
175 169 160 166 158 156 151 148 71 82 76 55 78 77 69 122 122 149 151 126 161 187 313 213 206 210 216 212 219 214 234 245 235 229 214 178 188 203 215 217 215 214 215
180 176 175 179 171 173 176 187 162 102 81 54 65 71 86 121 124 170 153 178 164 172 193 223 231 229 218 207 221 235 232 239 232 231 237 220 195 193 204 215 219 219 220
182 178 188 186 168 177 183 216 215 42 53 39 41 94 115 130 168 226 190 200 215 230 221 214 233 229 234 237 233 249 241 217 232 230 225 218 219 202 187 194 214 223 223
189 187 190 192 189 185 178 188 198 158 37 2 11 38 102 161 190 230 224 349 246 244 251 262 230 250 240 244 234 227 243 238 234 229 213 209 201 212 203 174 190 212 220
193 192 193 191 194 195 188 184 205 195 175 116 37 29 19 167 120 284 210 244 264 257 260 275 270 262 256 250 263 278 278 255 239 215 219 196 194 211 219 200 196 200 203
196 194 194 198 193 200 204 215 204 192 189 153 114 64 27 15 28 293 303 231 268 264 275 261 257 234 238 238 245 232 207 211 154 171 243 244 126 51 15 2 274 265 178
197 195 194 196 198 205 200 211 214 217 198 150 55 79 41 29 356 311 292 275 286 276 256 270 263 274 254 240 258 254 225 187 142 102 123 159 47 80 70 45 16 357 333
196 196 196 196 197 203 201 201 186 178 198 169 158 138 49 14 9 358 353 322 322 305 323 295 275 271 271 259 255 268 266 238 128 128 82 71 58 67 67 58 52 56 52
195 192 193 192 194 195 198 204 207 209 200 167 183 112 95 24 0 350 348 343 329 324 331 293 285 270 265 261 241 246 270 281 235 178 131 99 81 61 36 22 39 59 52
194 189 186 188 190 191 196 194 203 207 193 178 173 125 300 45 3 346 342 341 330 326 335 324 316 290 272 270 263 252 248 236 240 234 220 137 85 72 63 42 37 50 56
192 187 182 181 185 186 188 190 196 195 197 194 199 198 218 127 349 348 331 333 325 329 325 314 305 294 298 291 281 268 258 257 243 221 210 186 132 76 64 49 39 43 52
Height
1529 1527 1524 1523 1522 1522 1521 1520 1520 1519 1518 1518 1518 1518 1518 1518 1519 1520 1521 1523 1524 1524 1525 1526 1527 1529 1530 1532 1533 1534 1535 1536 1538 1539 1540 1541 1543 1545 1547 1549 1551 1552 1553
1531 1529 1527 1526 1525 1524 1524 1523 1523 1522 1522 1522 1522 1521 1521 1522 1522 1523 1524 1526 1527 1528 1529 1530 1531 1532 1534 1535 1536 1537 1538 1539 1541 1541 1542 1543 1544 1547 1549 1551 1553 1554 1555
1533 1532 1530 1529 1528 1527 1527 1526 1526 1526 1525 1525 1525 1525 1525 1526 1526 1527 1528 1529 1530 1531 1532 1533 1534 1535 1537 1538 1539 1541 1541 1543 1543 1545 1546 1548 1548 1549 1551 1553 1555 1556 1557
1535 1535 1533 1532 1531 1530 1529 1529 1529 1529 1529 1529 1529 1529 1529 1529 1530 1530 1532 1532 1533 1534 1535 1536 1537 1539 1540 1541 1543 1544 1544 1545 1546 1548 1551 1552 1552 1552 1554 1555 1556 1558 1559
1537 1537 1534 1534 1533 1533 1532 1532 1532 1532 1532 1532 1532 1532 1532 1533 1533 1533 1535 1536 1536 1537 1538 1539 1541 1542 1543 1544 1546 1547 1548 1548 1550 1552 1554 1555 1555 1555 1556 1557 1558 1560 1561
1539 1539 1537 1536 1536 1536 1535 1535 1534 1534 1535 1535 1535 1535 1536 1536 1537 1537 1538 1539 1540 1541 1542 1543 1544 1545 1546 1547 1548 1549 1550 1552 1553 1556 1556 1557 1557 1557 1558 1559 1560 1562 1563
1541 1542 1541 1539 1539 1539 1538 1538 1538 1537 1537 1538 1538 1538 1538 1539 1540 1540 1541 1542 1543 1544 1545 1546 1547 1548 1549 1550 1551 1552 1553 1554 1557 1558 1558 1559 1559 1559 1560 1561 1562 1564 1565
1543 1544 1542 1541 1541 1541 1541 1541 1540 1540 1540 1540 1541 1540 1541 1542 1543 1543 1544 1545 1546 1546 1548 1548 1550 1551 1552 1552 1553 1554 1555 1556 1559 1560 1561 1561 1560 1561 1562 1563 1564 1565 1566
1545 1545 1545 1546 1544 1544 1544 1543 1543 1543 1543 1543 1543 1543 1544 1545 1546 1546 1547 1548 1548 1549 1550 1551 1552 1553 1554 1554 1555 1556 1557 1558 1561 1562 1563 1562 1562 1563 1564 1564 1565 1566 1567
1546 1547 1547 1548 1547 1548 1547 1546 1546 1546 1546 1546 1546 1546 1547 1548 1549 1549 1550 1550 1551 1551 1552 1553 1554 1555 1555 1556 1557 1558 1559 1560 1563 1564 1564 1564 1563 1564 1565 1566 1566 1567 1568
1547 1548 1549 1550 1549 1550 1550 1549 1549 1549 1549 1549 1549 1549 1550 1552 1552 1552 1552 1552 1553 1553 1554 1555 1555 1556 1557 1558 1558 1559 1560 1563 1564 1565 1565 1564 1564 1565 1566 1566 1567 1568 1569
1549 1550 1550 1551 1551 1552 1552 1552 1552 1552 1552 1552 1552 1552 1553 1553 1554 1554 1554 1554 1554 1555 1556 1556 1557 1558 1559 1560 1560 1560 1562 1564 1565 1565 1565 1564 1565 1565 1566 1567 1568 1568 1569
1550 1551 1551 1552 1552 1553 1553 1554 1554 1554 1553 1554 1553 1553 1554 1554 1555 1556 1556 1556 1556 1556 1558 1558 1559 1560 1561 1561 1562 1563 1563 1564 1565 1566 1565 1564 1565 1566 1566 1567 1568 1568 1569
1551 1552 1553 1553 1553 1553 1554 1555 1555 1555 1555 1555 1555 1555 1555 1556 1556 1556 1557 1557 1557 1558 1558 1559 1559 1560 1560 1561 1562 1562 1563 1564 1565 1565 1564 1564 1565 1565 1566 1566 1567 1568 1568
1551 1553 1553 1553 1553 1553 1554 1555 1556 1556 1556 1556 1555 1555 1555 1556 1556 1557 1556 1557 1558 1558 1558 1558 1559 1559 1560 1560 1561 1562 1563 1563 1564 1564 1564 1563 1564 1565 1565 1566 1566 1567 1567
1552 1553 1554 1554 1554 1554 1555 1555 1556 1556 1556 1556 1556 1556 1555 1556 1556 1557 1557 1557 1558 1558 1558 1559 1559 1559 1560 1560 1561 1561 1561 1562 1562 1563 1564 1563 1563 1563 1564 1564 1565 1565 1566
1552 1553 1554 1554 1554 1554 1555 1556 1556 1557 1557 1557 1556 1555 1555 1556 1556 1556 1557 1557 1557 1557 1557 1558 1558 1559 1559 1559 1560 1560 1560 1560 1561 1561 1562 1562 1562 1562 1562 1563 1563 1564 1564
1552 1553 1554 1555 1555 1555 1555 1555 1557 1557 1557 1556 1556 1555 1555 1555 1555 1555 1556 1556 1556 1557 1557 1557 1557 1558 1558 1559 1559 1559 1559 1558 1559 1559 1560 1560 1560 1561 1561 1560 1561 1562 1562
1551 1552 1553 1554 1555 1555 1555 1556 1556 1556 1556 1556 1555 1555 1554 1554 1554 1555 1555 1555 1555 1556 1556 1556 1556 1556 1557 1557 1557 1557 1557 1557 1557 1557 1557 1558 1558 1559 1559 1558 1559 1559 1559
1550 1551 1552 1553 1554 1555 1555 1555 1556 1556 1556 1555 1555 1554 1554 1554 1554 1554 1554 1554 1554 1555 1554 1554 1554 1554 1555 1555 1556 1555 1555 1555 1555 1555 1555 1556 1556 1557 1557 1557 1557 1557 1556
1548 1549 1551 1552 1553 1554 1555 1555 1556 1556 1556 1555 1555 1554 1554 1554 1553 1553 1554 1553 1553 1554 1553 1553 1553 1553 1553 1553 1554 1554 1554 1554 1554 1553 1554 1554 1555 1555 1555 1554 1554 1555 1555
1546 1548 1549 1551 1552 1553 1554 1554 1554 1555 1555 1555 1554 1554 1554 1554 1553 1554 1553 1553 1553 1553 1552 1552 1552 1552 1552 1552 1553 1553 1553 1554 1552 1553 1552 1552 1553 1553 1553 1553 1552 1552 1553
1545 1546 1548 1549 1551 1552 1553 1554 1554 1554 1554 1555 1554 1554 1554 1553 1553 1553 1552 1553 1552 1552 1552 1551 1551 1551 1551 1551 1551 1552 1551 1551 1551 1552 1551 1551 1551 1551 1551 1551 1551 1551 1550
1543 1544 1546 1548 1549 1550 1551 1553 1553 1554 1555 1555 1555 1554 1554 1553 1553 1553 1552 1552 1551 1552 1551 1550 1550 1549 1549 1549 1549 1549 1550 1549 1550 1550 1551 1550 1550 1550 1550 1550 1550 1549 1549
1541 1543 1544 1546 1547 1549 1550 1551 1552 1553 1554 1554 1554 1554 1553 1553 1552 1552 1552 1551 1551 1550 1550 1549 1548 1548 1548 1548 1548 1547 1547 1547 1548 1548 1548 1549 1548 1548 1548 1549 1548 1548 1547
1539 1541 1543 1544 1546 1547 1549 1550 1551 1552 1552 1553 1553 1553 1554 1553 1553 1552 1551 1550 1550 1549 1548 1547 1547 1546 1546 1545 1545 1545 1545 1545 1545 1546 1546 1546 1547 1548 1547 1547 1547 1547 1546